Date String (YYYY-MM-DD hh:mm:ss) UTC,Instrument flags,absolute air pressure of the measurement (hPa),sample flow rate (lpm),inlet stack bypass flow (lpm),air temperature of the measurement (°C),ambient temperature measured by the external sensor (°C),aerosol sample conditioner tube jacket temperature (°C),OPC LED temperature (°C),internal box temperature (°C),relative humidity of the measurement (%),span deviation,mass concentration of particles derived from Lorenz-Mie calculation of OPC scattering (μg/m³),mass concentration of particles derived from Lorenz-Mie calculation of OPC scattering (μg/m³),mass concentration of particles derived from Lorenz-Mie calculation of OPC scattering (μg/m³)
DateTimeUTC,F1_M11,P_M11,Q1_M11,Q2_M11,T1_M11,T2_M11,T3_M11,T4_M11,T5_M11,U1_M11,ZSPAN_M11,X2_M11,X0_M11,X1_M11
2024-02-01 00:00:00,SystemResetWarning,0827.2,5.00,000.00,025.3,022.3,000.0,034.0,026.1,09.6,0006.2,0007.41,0023.17,0006.25
2024-02-01 00:01:00,SystemResetWarning,0827.3,5.02,000.00,025.0,022.3,000.0,034.0,025.9,09.8,0006.6,0007.49,0022.58,0006.34
2024-02-01 00:02:00,SystemResetWarning,0827.3,5.00,000.00,025.0,022.7,000.0,033.8,026.1,09.8,0008.9,0007.58,0022.96,0006.43
2024-02-01 00:03:00,SystemResetWarning,0827.3,4.99,000.00,025.0,023.1,000.0,033.7,026.3,09.8,0011.7,0007.66,0022.74,0006.51
2024-02-01 00:04:00,SystemResetWarning,0827.3,5.01,000.00,025.0,023.4,000.0,033.6,026.5,09.8,0007.7,0007.69,0022.98,0006.59
2024-02-01 00:05:00,SystemResetWarning,0827.4,5.01,000.00,025.1,023.7,000.0,033.6,026.7,09.8,0010.4,0007.74,0021.78,0006.66
2024-02-01 00:06:00,SystemResetWarning,0827.3,5.00,000.00,025.1,024.0,000.0,033.5,026.8,09.8,0013.3,0007.76,0022.67,0006.69
2024-02-01 00:07:00,SystemResetWarning,0827.4,5.00,000.00,025.1,024.2,000.0,033.5,026.9,09.7,0009.1,0007.83,0022.98,0006.72
2024-02-01 00:08:00,SystemResetWarning,0827.4,4.99,000.00,025.2,024.4,000.0,033.5,027.0,09.7,-003.4,0007.84,0023.11,0006.75
2024-02-01 00:09:00,SystemResetWarning,0827.4,4.99,000.00,025.2,024.6,000.0,033.5,027.1,09.7,0001.2,0007.83,0024.80,0006.74
2024-02-01 00:10:00,SystemResetWarning,0827.4,5.00,000.00,025.3,024.7,000.0,033.6,027.1,09.7,0007.4,0007.83,0026.87,0006.74
2024-02-01 00:11:00,SystemResetWarning,0827.4,5.02,000.00,025.3,024.8,000.0,033.6,027.2,09.6,-004.9,0007.88,0026.77,0006.75
2024-02-01 00:12:00,SystemResetWarning,0827.4,5.00,000.00,025.4,024.9,000.0,033.6,027.3,09.6,-005.8,0007.97,0027.07,0006.76
2024-02-01 00:13:00,SystemResetWarning,0827.4,4.99,000.00,025.4,025.0,000.0,033.6,027.3,09.6,-001.3,0008.04,0027.25,0006.77
2024-02-01 00:14:00,SystemResetWarning,0827.4,4.99,000.00,025.5,025.1,000.0,033.6,027.4,09.6,-003.4,0008.03,0028.04,0006.77
2024-02-01 00:15:00,SystemResetWarning,0827.4,5.02,000.00,025.5,025.1,000.0,033.7,027.4,09.5,-003.0,0008.09,0029.02,0006.76
2024-02-01 00:16:00,SystemResetWarning,0827.4,5.00,000.00,025.6,025.2,000.0,033.7,027.5,09.5,-007.8,0008.18,0029.48,0006.77
2024-02-01 00:17:00,SystemResetWarning,0827.4,4.98,000.00,025.6,025.2,000.0,033.7,027.5,09.5,-001.8,0008.28,0030.24,0006.80
2024-02-01 00:18:00,SystemResetWarning,0827.4,5.00,000.00,025.7,025.3,000.0,033.8,027.6,09.5,0001.0,0008.37,0030.80,0006.82
2024-02-01 00:19:00,SystemResetWarning,0827.4,5.02,000.00,025.7,025.3,000.0,033.8,027.6,09.4,0001.6,0008.47,0031.58,0006.86
2024-02-01 00:20:00,SystemResetWarning,0827.3,4.99,000.00,025.8,025.4,000.0,033.8,027.6,09.4,0001.3,0008.54,0032.68,0006.89
2024-02-01 00:21:00,SystemResetWarning,0827.4,4.99,000.00,025.8,025.4,000.0,033.9,027.6,09.4,0000.5,0008.57,0031.73,0006.91
2024-02-01 00:22:00,SystemResetWarning,0827.4,5.01,000.00,025.8,025.5,000.0,033.9,027.7,09.4,0001.3,0008.54,0031.86,0006.91
2024-02-01 00:23:00,SystemResetWarning,0827.4,5.01,000.00,025.9,025.5,000.0,033.9,027.8,09.4,0001.9,0008.53,0033.13,0006.91
2024-02-01 00:24:00,SystemResetWarning,0827.4,5.00,000.00,025.9,025.1,000.0,034.0,027.5,09.4,0000.8,0008.50,0034.08,0006.91
2024-02-01 00:25:00,SystemResetWarning,0827.3,4.99,000.00,025.5,022.9,000.0,034.1,026.4,09.5,0000.7,0008.53,0033.35,0006.91
2024-02-01 00:26:00,SystemResetWarning,0827.2,5.02,000.00,025.1,022.2,000.0,034.1,025.9,09.7,-001.3,0008.50,0032.75,0006.90
2024-02-01 00:27:00,SystemResetWarning,0827.3,5.00,000.00,025.0,022.4,000.0,033.9,025.9,09.8,-002.0,0008.43,0033.08,0006.90
2024-02-01 00:28:00,SystemResetWarning,0827.3,5.00,000.00,025.0,022.7,000.0,033.8,026.1,09.8,-002.3,0008.44,0031.88,0006.89
2024-02-01 00:29:00,SystemResetWarning,0827.3,4.99,000.00,025.0,023.1,000.0,033.7,026.4,09.8,-002.4,0008.37,0031.06,0006.87
2024-02-01 00:30:00,SystemResetWarning,0827.3,5.00,000.00,025.0,023.5,000.0,033.6,026.6,09.8,-002.9,0008.39,0030.84,0006.87
2024-02-01 00:31:00,SystemResetWarning,0827.4,5.02,000.00,025.0,023.7,000.0,033.6,026.7,09.8,-003.1,0008.44,0029.55,0006.90
2024-02-01 00:32:00,SystemResetWarning,0827.3,5.00,000.00,025.1,024.0,000.0,033.5,026.8,09.8,-003.7,0008.44,0028.85,0006.89
2024-02-01 00:33:00,SystemResetWarning,0827.3,4.99,000.00,025.1,024.2,000.0,033.5,026.9,09.8,-003.8,0008.48,0030.03,0006.88
2024-02-01 00:34:00,SystemResetWarning,0827.3,5.00,000.00,025.2,024.4,000.0,033.5,026.9,09.8,-003.4,0008.43,0029.71,0006.86
2024-02-01 00:35:00,SystemResetWarning,0827.3,5.00,000.00,025.2,024.5,000.0,033.5,027.0,09.8,-003.4,0008.41,0029.02,0006.82
2024-02-01 00:36:00,SystemResetWarning,0827.3,5.00,000.00,025.3,024.6,000.0,033.5,027.1,09.8,-003.5,0008.40,0028.86,0006.78
2024-02-01 00:37:00,SystemResetWarning,0827.3,4.99,000.00,025.3,024.7,000.0,033.5,027.1,09.7,-002.7,0008.47,0029.21,0006.75
2024-02-01 00:38:00,SystemResetWarning,0827.4,4.99,000.00,025.3,024.8,000.0,033.5,027.2,09.7,-002.0,0008.43,0029.52,0006.72
2024-02-01 00:39:00,SystemResetWarning,0827.4,4.99,000.00,025.4,024.9,000.0,033.6,027.2,09.7,-001.8,0008.40,0030.36,0006.68
2024-02-01 00:40:00,SystemResetWarning,0827.4,5.00,000.00,025.4,025.0,000.0,033.6,027.3,09.7,-001.5,0008.42,0031.58,0006.64
2024-02-01 00:41:00,SystemResetWarning,0827.4,5.00,000.00,025.5,025.0,000.0,033.6,027.3,09.6,-001.9,0008.40,0032.13,0006.62
2024-02-01 00:42:00,SystemResetWarning,0827.3,5.01,000.00,025.5,025.1,000.0,033.7,027.4,09.6,-002.0,0008.25,0030.90,0006.51
2024-02-01 00:43:00,SystemResetWarning,0827.4,5.01,000.00,025.6,025.1,000.0,033.7,027.4,09.6,-002.0,0008.08,0031.38,0006.36
2024-02-01 00:44:00,SystemResetWarning,0827.4,5.00,000.00,025.6,025.2,000.0,033.7,027.5,09.5,-001.5,0007.94,0030.68,0006.24
2024-02-01 00:45:00,SystemResetWarning,0827.4,4.99,000.00,025.6,025.2,000.0,033.7,027.5,09.5,-001.8,0007.88,0029.48,0006.17
2024-02-01 00:46:00,SystemResetWarning,0827.4,5.00,000.00,025.7,025.2,000.0,033.8,027.5,09.5,-002.0,0007.82,0028.49,0006.13
2024-02-01 00:47:00,SystemResetWarning,0827.4,5.00,000.00,025.7,025.3,000.0,033.8,027.6,09.5,-001.9,0007.71,0027.96,0006.09
2024-02-01 00:48:00,SystemResetWarning,0827.4,5.00,000.00,025.7,025.3,000.0,033.8,027.6,09.4,-002.5,0007.54,0026.62,0006.01
2024-02-01 00:49:00,SystemResetWarning,0827.4,5.01,000.00,025.8,025.3,000.0,033.8,027.6,09.4,-003.0,0007.54,0026.41,0005.96
2024-02-01 00:50:00,SystemResetWarning,0827.4,5.00,000.00,025.8,025.4,000.0,033.9,027.6,09.4,-003.1,0007.48,0025.19,0005.89
2024-02-01 00:51:00,SystemResetWarning,0827.4,4.98,000.00,025.8,025.4,000.0,033.9,027.7,09.4,-003.7,0007.36,0024.42,0005.83
2024-02-01 00:52:00,SystemResetWarning,0827.4,4.99,000.00,025.9,025.4,000.0,033.9,027.7,09.3,-003.6,0007.28,0023.20,0005.77
2024-02-01 00:53:00,SystemResetWarning,0827.4,5.01,000.00,025.9,025.4,000.0,034.0,027.7,09.3,-002.8,0007.21,0022.80,0005.74
2024-02-01 00:54:00,SystemResetWarning,0827.4,5.01,000.00,025.9,025.5,000.0,034.0,027.7,09.3,-000.7,0007.24,0023.03,0005.78
2024-02-01 00:55:00,SystemResetWarning,0827.4,5.01,000.00,025.9,025.5,000.0,034.0,027.8,09.2,0001.6,0007.19,0022.54,0005.78
2024-02-01 00:56:00,SystemResetWarning,0827.3,4.99,000.00,026.0,025.5,000.0,034.0,027.8,09.2,0004.9,0007.03,0021.72,0005.66
2024-02-01 00:57:00,SystemResetWarning,0827.4,5.00,000.00,026.0,025.5,000.0,034.1,027.8,09.2,0004.8,0006.83,0021.34,0005.52
2024-02-01 00:58:00,SystemResetWarning,0827.4,5.00,000.00,026.0,025.5,000.0,034.1,027.8,09.2,0005.5,0006.70,0021.60,0005.41
2024-02-01 00:59:00,SystemResetWarning,0827.4,5.01,000.00,026.0,025.5,000.0,034.1,027.8,09.2,0005.7,0006.65,0022.88,0005.37
